Change the Weather History Date:

Wednesday, September 18, 2013

  Actual Average Record
Temperature  
Mean Temperature 54 °F -  
Max Temperature 63 °F 56 °F 69 °F (2010)
Min Temperature 46 °F 45 °F 37 °F (1998)
Degree Days  
Heating Degree Days 11    
Growing Degree Days 4 (Base 50)    
Moisture  
Dew Point 48 °F    
Average Humidity 88    
Maximum Humidity 100    
Minimum Humidity 56    
Precipitation  
Precipitation 0.08 in - - ()
Sea Level Pressure  
Sea Level Pressure 29.79 in    
Wind  
Wind Speed 1 mph (NE)    
Max Wind Speed 8 mph    
Max Gust Speed -    
Visibility 8 miles    
Events Rain    
Averages and records for this station are not official NWS values.
T = Trace of Precipitation, MM = Missing Value Source: NWS Daily Summary

Daily Weather History Graph

Daily Weather History Graph

Search for Another Location

Airport or City:

Trip Planner

Search our weather history database for the weather conditions in past years. The results will help you decide how hot, cold, wet, or windy it might be!

Date:

Astronomy

Sep. 18, 2013 Rise Set
Actual Time 6:30 AM AKDT 7:00 PM AKDT
Civil Twilight 5:53 AM AKDT 7:37 PM AKDT
Nautical Twilight 5:09 AM AKDT 8:21 PM AKDT
Astronomical Twilight 4:21 AM AKDT 9:08 PM AKDT
Moon 6:23 PM AKDT (9/18) 5:40 AM AKDT (9/18)
Length of Visible Light 13h 43m
Length of Day
12h 29m
Waxing Gibbous, 99% of the Moon is Illuminated
Sep 18
Waxing Gibbous
Sep 19
Full
Sep 26
Last Quarter
Oct 4
New
Oct 11
First Quarter

Hourly Weather History & Observations

Time (AKDT) Temp. Windchill Dew Point Humidity Pressure Visibility Wind Dir Wind Speed Gust Speed Precip Events Conditions
12:00 AM 50.0 °F - 48.2 °F 94% 29.80 in 10.0 mi Calm Calm - N/A   Overcast
12:36 AM 48.2 °F - 46.4 °F 93% 29.80 in 7.0 mi Calm Calm - N/A   Scattered Clouds
12:53 AM 48.9 °F - 46.9 °F 93% 29.80 in 10.0 mi Calm Calm - N/A   Scattered Clouds
1:53 AM 46.9 °F - 46.9 °F 100% 29.81 in 10.0 mi Calm Calm - N/A   Mostly Cloudy
2:11 AM 48.2 °F - 46.4 °F 93% 29.81 in 4.0 mi Calm Calm - N/A   Overcast
2:15 AM 48.2 °F - 46.4 °F 93% 29.81 in 1.8 mi Calm Calm - N/A   Overcast
2:21 AM 48.2 °F - 46.4 °F 93% 29.81 in 0.8 mi Calm Calm - N/A   Overcast
2:25 AM 48.2 °F - 48.2 °F 100% 29.81 in 1.0 mi Calm Calm - N/A   Overcast
2:30 AM 48.2 °F - 48.2 °F 100% 29.81 in 2.0 mi Calm Calm - N/A   Overcast
2:38 AM 48.2 °F - 48.2 °F 100% 29.81 in 10.0 mi Calm Calm - N/A   Overcast
2:53 AM 48.0 °F - 46.9 °F 96% 29.81 in 5.0 mi Calm Calm - N/A   Mostly Cloudy
3:00 AM 48.2 °F - 46.4 °F 93% 29.81 in 5.0 mi Calm Calm - N/A   Mostly Cloudy
3:12 AM 48.2 °F - 46.4 °F 93% 29.82 in 10.0 mi Calm Calm - N/A   Scattered Clouds
3:42 AM 48.2 °F - 46.4 °F 93% 29.82 in 9.0 mi Calm Calm - N/A   Mostly Cloudy
3:53 AM 46.9 °F - 46.0 °F 97% 29.82 in 7.0 mi Calm Calm - N/A   Mostly Cloudy
4:01 AM 48.2 °F - 46.4 °F 93% 29.82 in 7.0 mi Calm Calm - N/A   Mostly Cloudy
4:53 AM 46.0 °F - 45.0 °F 96% 29.82 in 8.0 mi Calm Calm - N/A   Clear
5:44 AM 46.4 °F - 44.6 °F 93% 29.82 in 10.0 mi Calm Calm - N/A   Partly Cloudy
5:53 AM 46.0 °F 44.8 °F 45.0 °F 96% 29.83 in 10.0 mi NNE 3.5 mph - N/A   Partly Cloudy
6:53 AM 46.9 °F - 45.0 °F 93% 29.83 in 10.0 mi Calm Calm - N/A   Partly Cloudy
7:53 AM 48.0 °F - 46.9 °F 96% 29.83 in 10.0 mi Variable 4.6 mph - N/A   Clear
8:53 AM 50.0 °F - 48.9 °F 96% 29.84 in 10.0 mi Calm Calm - N/A   Clear
9:53 AM 53.1 °F - 50.0 °F 89% 29.84 in 10.0 mi NNE 4.6 mph - N/A   Partly Cloudy
10:53 AM 55.9 °F - 51.1 °F 84% 29.83 in 10.0 mi NNE 4.6 mph - N/A   Partly Cloudy
11:53 AM 60.1 °F - 48.9 °F 67% 29.83 in 10.0 mi SSE 4.6 mph - N/A   Partly Cloudy
12:53 PM 62.1 °F - 46.0 °F 56% 29.82 in 10.0 mi South 6.9 mph - N/A   Mostly Cloudy
1:53 PM 62.1 °F - 46.9 °F 58% 29.81 in 10.0 mi Variable 5.8 mph - N/A   Scattered Clouds
2:53 PM 61.0 °F - 46.9 °F 60% 29.80 in 10.0 mi Calm Calm - N/A   Overcast
3:53 PM 60.1 °F - 48.0 °F 64% 29.79 in 10.0 mi Calm Calm - 0.00 in   Overcast
4:53 PM 57.9 °F - 50.0 °F 75% 29.77 in 10.0 mi Calm Calm - N/A   Overcast
5:53 PM 55.9 °F - 51.1 °F 84% 29.76 in 10.0 mi North 3.5 mph - N/A   Overcast
6:53 PM 55.9 °F - 50.0 °F 80% 29.74 in 10.0 mi Calm Calm - N/A   Overcast
7:53 PM 55.9 °F - 50.0 °F 80% 29.73 in 10.0 mi NNE 4.6 mph - N/A   Overcast
8:53 PM 55.0 °F - 51.1 °F 86% 29.70 in 10.0 mi NNE 8.1 mph - N/A   Mostly Cloudy
9:53 PM 55.0 °F - 51.1 °F 86% 29.68 in 10.0 mi Calm Calm - 0.02 in Rain Light Rain
10:53 PM 54.0 °F - 52.0 °F 93% 29.66 in 10.0 mi Calm Calm - 0.02 in Rain Light Rain
11:53 PM 53.1 °F - 53.1 °F 100% 29.61 in 10.0 mi East 3.5 mph - 0.04 in Rain Light Rain